Wind_Speed
20 20 21 22 24 25 27 28 29 31 32 33 35 37 39 41 43 46 48 50 51 52 53 53 54 56 58 60 62 65 68 71 74 76 78 81 84 87 87 87 86 85 82
23 23 24 25 26 28 30 31 32 34 35 37 38 39 41 43 46 48 50 52 54 55 55 56 56 58 59 62 64 67 70 73 77 79 82 83 83 85 83 82 81 79 77
25 26 26 28 29 31 33 34 35 36 38 40 41 43 44 46 49 51 53 55 56 57 58 58 59 60 62 64 66 69 72 75 79 82 85 86 86 86 81 76 75 73 71
27 28 29 30 32 34 36 37 38 40 41 43 44 46 47 49 51 54 56 57 58 59 60 60 61 62 64 65 68 70 73 77 80 83 85 87 87 88 83 74 70 67 65
29 30 31 33 35 37 39 40 41 42 44 45 47 49 50 52 54 56 58 59 60 60 61 62 63 64 65 67 69 72 75 78 81 83 84 85 85 85 84 76 67 62 60
31 32 34 36 38 40 42 43 44 45 47 48 50 52 53 55 56 58 60 61 62 62 62 63 64 65 67 68 70 73 76 80 82 84 83 83 82 81 80 77 69 61 56
33 35 37 40 41 43 45 46 47 48 50 51 52 54 56 57 59 61 62 62 63 63 63 64 65 67 68 69 71 74 78 80 82 83 81 80 80 79 77 75 70 63 55
37 39 41 44 45 46 48 49 50 51 53 54 55 56 58 59 61 62 63 63 64 64 64 65 67 68 68 70 72 75 78 80 82 81 79 78 77 76 74 73 70 64 56
42 44 46 48 49 50 51 52 53 54 55 57 58 59 60 61 62 63 64 64 64 64 66 67 68 69 70 71 73 76 78 80 81 80 77 76 75 73 71 70 68 66 60
45 48 50 52 54 54 54 54 56 57 58 59 60 60 61 62 64 64 65 65 65 65 67 68 69 70 71 72 74 76 79 80 80 78 75 73 73 70 69 67 65 63 61
48 51 54 56 58 58 57 57 58 59 60 60 61 62 62 63 65 65 66 66 65 66 68 69 70 71 72 73 74 76 78 79 78 77 74 72 71 69 67 65 63 60 59
49 52 53 55 56 57 58 58 59 59 60 61 62 62 63 65 66 66 66 66 66 67 69 69 70 71 72 73 74 76 78 78 77 75 72 70 69 67 65 64 61 58 57
49 51 52 54 55 56 57 57 58 59 60 61 62 62 64 66 66 66 66 67 67 68 69 70 70 71 72 73 74 75 76 76 75 73 70 68 68 65 63 62 60 57 54
51 52 53 54 54 55 55 56 57 59 60 61 62 63 64 66 66 66 67 68 69 69 70 71 70 70 71 72 73 74 74 74 74 71 68 67 66 64 62 60 58 56 53
54 54 54 54 55 55 56 56 57 58 59 60 62 63 65 66 67 67 68 69 70 69 69 69 69 68 68 69 71 72 72 72 71 69 66 64 63 62 61 60 59 55 52
56 55 56 55 55 56 57 57 57 58 59 61 62 65 66 67 67 68 68 69 68 68 68 67 67 65 65 68 69 70 70 70 69 67 64 62 62 61 59 58 57 55 52
57 57 57 57 57 57 58 59 59 61 62 63 64 66 67 67 67 67 68 68 67 66 66 66 63 62 63 65 67 67 67 67 67 65 63 61 60 59 57 56 55 52 50
58 58 58 59 59 60 61 62 62 63 63 64 66 67 67 66 66 66 66 65 64 63 63 61 59 59 61 63 63 64 65 65 64 63 61 59 58 57 56 54 52 50 48
59 60 61 61 61 62 63 63 63 64 65 65 65 65 65 65 64 63 62 61 60 59 58 57 56 57 58 59 60 60 62 62 61 60 59 58 56 55 54 53 51 48 45
59 61 61 61 61 62 63 63 63 63 63 63 63 62 62 61 60 59 58 58 57 56 55 54 54 54 55 57 57 58 59 59 58 58 56 55 54 53 52 51 49 47 43
58 58 59 59 59 59 59 58 58 58 58 58 57 57 57 56 56 56 56 56 55 53 53 53 52 53 53 54 55 55 57 57 56 55 54 53 52 51 50 49 48 46 42
55 56 55 54 54 55 54 53 53 54 54 54 54 54 54 54 55 55 55 54 53 52 51 51 51 51 51 53 53 53 55 55 53 53 52 51 50 49 48 47 45 44 41
52 52 51 50 49 50 51 52 51 52 52 52 53 54 54 54 54 53 53 51 50 49 49 49 49 50 50 51 51 51 52 53 52 51 50 49 48 48 47 45 43 42 39
48 48 48 48 48 49 50 51 51 51 52 52 53 54 53 53 53 53 52 51 50 49 49 48 48 47 47 49 49 49 50 50 50 49 48 48 47 46 46 44 42 41 38
47 48 48 47 47 49 50 51 51 52 53 53 53 53 54 54 55 55 54 53 52 51 49 47 46 45 46 47 47 47 48 48 47 47 46 45 45 44 44 42 41 39 36
48 48 47 48 49 49 50 51 53 54 54 54 55 56 56 56 56 55 54 53 52 50 48 46 44 44 44 45 45 44 45 45 45 44 44 43 42 42 41 40 38 37 34
Wind_Direction
282 284 286 288 292 296 300 304 308 311 314 317 319 320 321 322 323 325 326 327 326 324 323 321 319 318 318 318 319 320 322 323 323 324 324 323 322 321 321 319 317 314 312
282 283 284 286 289 293 296 300 305 309 312 314 317 318 319 320 321 323 323 325 325 324 323 321 319 319 319 319 320 321 323 324 325 325 325 325 324 324 323 321 319 316 314
280 282 284 285 287 290 295 298 302 306 309 312 314 316 317 318 319 321 322 323 324 323 322 321 319 319 319 320 321 323 324 325 326 326 325 326 326 326 326 323 320 317 316
280 281 283 284 286 289 293 297 300 303 306 309 311 314 315 316 318 319 320 321 322 322 321 320 319 319 319 321 322 324 325 326 327 326 326 326 326 327 328 327 323 320 318
279 280 281 283 286 289 292 295 298 300 303 306 308 311 313 314 316 318 319 320 320 321 320 320 319 319 320 322 323 325 326 327 327 327 327 326 326 327 328 329 327 324 320
279 280 281 283 285 288 290 293 296 298 300 303 306 308 310 312 315 316 317 319 319 319 319 319 319 320 321 322 324 326 326 327 327 327 327 327 327 327 327 328 329 328 324
278 278 279 281 283 286 289 291 294 296 299 301 304 306 309 311 313 315 316 317 318 318 318 319 319 320 322 324 325 326 326 327 327 327 327 327 327 328 328 328 329 329 328
275 275 277 279 281 284 287 290 293 295 297 299 302 305 307 309 311 313 315 316 316 317 317 318 319 321 323 324 325 326 326 326 326 327 328 328 328 328 328 328 328 329 330
274 275 276 278 280 283 286 288 291 293 295 298 300 303 306 308 310 312 313 314 315 315 316 318 319 321 323 324 325 325 325 325 326 327 328 328 328 329 328 328 328 327 329
274 275 276 278 281 283 286 288 290 292 294 296 299 302 304 306 308 310 312 313 313 314 316 317 319 321 322 323 324 324 324 325 325 327 328 329 329 330 329 329 328 327 327
277 278 279 281 284 286 287 289 290 292 293 295 298 301 303 305 307 309 310 311 312 314 316 318 320 321 321 321 322 323 323 324 325 327 329 329 329 330 330 330 329 327 326
284 284 286 286 287 287 288 289 289 291 292 294 297 300 301 303 305 307 309 311 312 314 316 318 320 320 321 320 321 322 322 323 325 327 329 329 330 331 331 330 329 327 326
289 289 289 289 289 288 288 288 289 290 292 294 296 298 300 301 304 306 308 310 312 314 315 317 319 320 321 320 320 321 322 323 324 327 329 330 330 331 331 331 330 328 327
292 292 292 292 292 291 290 290 290 291 293 294 296 297 299 301 304 306 308 310 311 313 315 316 318 319 321 320 320 321 321 322 324 327 329 330 331 331 331 331 331 329 328
295 295 295 294 294 293 292 292 291 292 293 294 296 298 300 302 304 306 308 309 311 313 315 316 317 318 320 320 320 321 321 322 324 327 329 330 331 331 332 332 332 331 329
298 297 297 297 296 295 294 294 293 293 294 295 296 298 300 302 305 306 308 310 311 313 314 316 316 317 318 319 320 320 321 322 324 327 329 331 331 332 333 333 333 331 330
299 299 299 298 298 296 295 294 294 295 295 296 298 299 301 303 305 306 308 310 311 312 313 315 316 316 317 318 319 320 321 322 324 327 330 331 332 332 334 334 334 332 330
300 300 299 298 297 297 296 296 296 297 297 298 299 301 303 304 305 306 308 309 310 312 313 315 315 316 317 318 319 320 321 322 324 327 330 332 333 333 334 335 335 334 332
301 300 299 298 298 297 297 296 297 298 299 300 301 302 303 304 305 306 308 309 311 312 313 315 315 316 317 318 319 320 321 322 325 327 330 332 333 333 334 336 336 335 333
299 299 298 298 299 298 297 297 298 299 300 301 302 303 303 304 305 307 308 310 311 312 313 314 315 315 316 317 319 320 321 323 325 327 330 331 333 334 335 337 337 337 335
300 300 300 300 300 299 299 299 300 301 302 304 305 306 306 306 306 307 309 310 310 312 312 314 315 315 316 317 318 319 321 323 325 328 330 332 333 335 336 337 338 338 337
302 302 302 302 302 301 301 301 302 303 305 306 307 307 307 308 308 308 309 310 311 311 312 313 314 314 315 316 317 319 321 323 326 328 330 332 334 335 337 338 338 339 339
303 303 304 304 303 303 304 305 305 305 306 307 307 307 307 308 308 308 310 311 312 312 312 313 314 314 315 316 317 319 320 323 326 328 331 333 335 336 338 338 339 340 341
304 304 305 305 305 305 306 306 307 307 308 308 308 308 308 308 308 308 309 309 310 310 310 311 312 314 315 316 317 318 320 323 326 329 331 334 335 337 338 339 340 342 343
305 306 306 306 306 307 307 307 308 308 309 309 309 308 308 308 307 308 308 307 307 308 308 309 310 312 313 315 316 317 319 322 326 329 331 334 335 337 339 340 341 342 343
305 307 308 308 308 308 308 307 307 308 309 309 308 308 308 307 307 306 305 305 305 305 305 306 307 309 311 314 315 316 319 322 326 329 331 334 335 338 339 340 341 342 343
Height
5829 5827 5825 5823 5821 5819 5816 5812 5809 5805 5800 5796 5791 5786 5781 5775 5770 5763 5756 5749 5742 5735 5727 5719 5710 5702 5694 5685 5676 5666 5656 5645 5634 5624 5613 5600 5581 5560 5540 5519 5499 5479 5461
5824 5822 5820 5818 5816 5813 5810 5806 5802 5798 5793 5789 5784 5779 5773 5767 5761 5754 5747 5740 5732 5724 5716 5708 5699 5690 5682 5672 5663 5653 5641 5629 5616 5605 5593 5582 5569 5547 5524 5501 5478 5458 5441
5819 5817 5814 5812 5809 5806 5803 5799 5795 5790 5786 5781 5776 5771 5765 5759 5752 5745 5738 5730 5722 5714 5705 5696 5687 5678 5669 5659 5649 5638 5626 5614 5599 5584 5570 5556 5544 5529 5512 5489 5465 5443 5426
5813 5810 5808 5805 5803 5799 5796 5792 5787 5783 5778 5772 5767 5762 5756 5750 5743 5736 5728 5720 5712 5703 5694 5685 5676 5666 5656 5646 5635 5623 5611 5598 5584 5568 5550 5533 5515 5500 5489 5476 5452 5432 5414
5806 5803 5801 5798 5795 5792 5788 5784 5779 5775 5769 5764 5759 5753 5747 5740 5733 5725 5717 5709 5701 5692 5683 5674 5664 5654 5644 5633 5621 5608 5595 5581 5567 5551 5534 5516 5497 5477 5460 5452 5440 5421 5402
5799 5796 5793 5790 5787 5783 5779 5775 5771 5766 5760 5755 5749 5743 5737 5730 5722 5714 5706 5698 5689 5680 5671 5662 5652 5641 5631 5619 5607 5594 5580 5566 5550 5534 5517 5499 5481 5463 5443 5429 5419 5408 5393
5791 5788 5784 5781 5777 5773 5770 5765 5761 5756 5751 5745 5739 5733 5726 5719 5711 5703 5695 5686 5678 5669 5659 5650 5639 5629 5617 5606 5593 5580 5566 5551 5535 5519 5502 5483 5465 5447 5429 5413 5401 5392 5382
5781 5778 5774 5771 5767 5763 5759 5755 5750 5745 5740 5734 5728 5722 5715 5707 5700 5691 5683 5675 5666 5657 5647 5637 5627 5616 5604 5592 5580 5566 5552 5537 5521 5505 5487 5470 5451 5433 5415 5399 5384 5375 5369
5769 5766 5763 5759 5756 5752 5748 5744 5739 5734 5728 5722 5716 5710 5703 5695 5688 5680 5671 5662 5653 5644 5635 5624 5614 5603 5591 5579 5566 5553 5539 5524 5508 5491 5474 5457 5439 5422 5404 5388 5371 5358 5350
5758 5754 5750 5747 5743 5740 5737 5732 5727 5721 5716 5710 5704 5698 5691 5683 5676 5668 5659 5650 5641 5632 5622 5611 5601 5589 5578 5566 5553 5540 5526 5511 5495 5479 5462 5445 5428 5412 5395 5379 5364 5349 5336
5747 5743 5739 5735 5732 5728 5724 5720 5714 5709 5703 5697 5692 5686 5679 5671 5663 5655 5647 5638 5628 5619 5609 5598 5588 5576 5565 5553 5541 5528 5514 5499 5483 5466 5451 5434 5417 5402 5386 5371 5356 5342 5328
5737 5733 5729 5725 5720 5716 5711 5706 5701 5696 5690 5685 5679 5673 5666 5658 5650 5642 5634 5625 5616 5606 5596 5586 5575 5564 5552 5540 5528 5515 5501 5487 5472 5456 5440 5424 5407 5392 5376 5362 5348 5334 5321
5726 5722 5717 5713 5708 5703 5698 5693 5688 5683 5677 5672 5666 5660 5652 5644 5637 5629 5621 5612 5603 5593 5583 5573 5562 5551 5540 5528 5516 5504 5490 5475 5460 5445 5429 5414 5397 5383 5368 5354 5340 5327 5314
5713 5709 5705 5700 5695 5690 5685 5680 5675 5669 5664 5658 5652 5645 5638 5631 5623 5616 5607 5598 5589 5580 5570 5560 5550 5539 5528 5516 5504 5492 5479 5464 5449 5434 5419 5404 5388 5374 5360 5347 5333 5319 5307
5701 5697 5692 5687 5682 5677 5672 5667 5661 5656 5650 5644 5638 5631 5623 5616 5609 5602 5593 5585 5576 5566 5557 5547 5537 5526 5515 5504 5492 5480 5468 5454 5439 5424 5409 5394 5379 5365 5350 5336 5323 5310 5299
5688 5683 5679 5674 5669 5663 5658 5653 5647 5641 5635 5629 5623 5616 5609 5602 5595 5587 5579 5571 5562 5553 5543 5534 5524 5513 5503 5492 5481 5469 5457 5444 5430 5416 5401 5386 5371 5357 5343 5329 5315 5302 5290
5674 5670 5665 5660 5655 5649 5643 5638 5632 5626 5620 5614 5608 5601 5594 5588 5580 5573 5565 5557 5548 5539 5530 5521 5511 5501 5491 5480 5469 5457 5446 5434 5420 5406 5392 5378 5364 5350 5337 5324 5310 5297 5284
5660 5655 5650 5645 5640 5634 5628 5623 5618 5611 5605 5599 5593 5587 5580 5573 5566 5558 5551 5542 5534 5526 5517 5508 5499 5489 5480 5469 5458 5447 5436 5423 5410 5397 5384 5371 5357 5343 5330 5319 5306 5292 5280
5646 5641 5635 5630 5625 5619 5613 5608 5602 5596 5590 5584 5578 5572 5565 5558 5551 5544 5536 5528 5520 5512 5504 5496 5487 5478 5468 5458 5448 5437 5426 5414 5401 5388 5375 5362 5350 5337 5325 5313 5300 5288 5277
5633 5627 5622 5616 5610 5603 5597 5592 5587 5581 5575 5569 5563 5557 5550 5543 5536 5529 5522 5515 5507 5499 5492 5484 5475 5466 5457 5448 5437 5427 5417 5406 5394 5381 5368 5355 5343 5330 5317 5306 5294 5284 5273
5620 5613 5607 5601 5595 5588 5582 5577 5572 5566 5560 5554 5548 5542 5535 5528 5522 5515 5509 5502 5494 5487 5480 5472 5464 5455 5447 5437 5427 5418 5408 5398 5386 5374 5361 5349 5337 5324 5312 5300 5289 5278 5268
5606 5599 5593 5587 5581 5574 5568 5564 5558 5552 5547 5541 5535 5528 5522 5515 5508 5502 5495 5488 5481 5474 5467 5460 5452 5444 5436 5427 5418 5408 5399 5389 5378 5367 5355 5343 5331 5319 5308 5296 5285 5275 5264
5592 5586 5580 5574 5569 5562 5556 5551 5546 5540 5534 5528 5521 5515 5509 5502 5495 5489 5482 5475 5468 5462 5455 5448 5441 5433 5425 5417 5409 5400 5390 5380 5370 5360 5348 5337 5326 5314 5303 5292 5282 5272 5262
5579 5573 5568 5562 5557 5551 5545 5538 5533 5527 5522 5515 5509 5502 5495 5489 5482 5475 5469 5463 5456 5450 5443 5437 5430 5423 5415 5408 5400 5391 5382 5373 5363 5352 5342 5331 5320 5309 5299 5288 5278 5268 5258
5567 5562 5556 5550 5545 5539 5533 5527 5521 5515 5509 5502 5495 5489 5482 5475 5468 5462 5456 5449 5444 5437 5431 5425 5419 5412 5406 5398 5391 5383 5375 5365 5356 5346 5336 5326 5316 5305 5294 5284 5274 5265 5256
5556 5550 5544 5538 5533 5527 5521 5514 5508 5502 5495 5489 5482 5475 5468 5461 5454 5448 5442 5435 5430 5424 5418 5413 5408 5402 5396 5389 5382 5375 5367 5358 5349 5340 5331 5321 5312 5302 5292 5282 5273 5263 5255